Waarnemingen

Advertentie
Mijn weer
D15-FA-1, Nederland (6201): temperatuur & dauwpunt: 14.10.2018 04:00:00 - 20.10.2018 04:00:00 (CEST)D15-FA-1, Nederland (6201): windsnelheid & windstoten: 14.10.2018 04:00:00 - 20.10.2018 04:00:00 (CEST)D15-FA-1, Nederland (6201): windrichting: 14.10.2018 04:00:00 - 20.10.2018 04:00:00 (CEST)D15-FA-1, Nederland (6201): luchtdruk: 14.10.2018 04:00:00 - 20.10.2018 04:00:00 (CEST)D15-FA-1, Nederland (6201): zicht: 14.10.2018 04:00:00 - 20.10.2018 04:00:00 (CEST)
Datum & Tijd tt [°C] td [°C] ff [km/u] ff [kn] fx [km/u] fx [kn] dd ppp [hPa] vv [km]
20.10.2018 04:00:00 13,3 10,7 24 13 29 16 WNW 1027,5 10
20.10.2018 03:00:00 13,4 10,5 26 14 29 16 W 1027,1 10
20.10.2018 02:00:00 13,3 10,6 21 11 22 12 W 1026,4 10
20.10.2018 01:00:00 13,3 10,2 22 12 25 14 W 1026,4 10
20.10.2018 00:00:00 13,1 9,8 24 13 29 16 W 1026,6 10
19.10.2018 23:00:00 12,9 9,5 22 12 29 16 - 1026,7 10
19.10.2018 22:00:00 12,7 8,7 28 15 29 16 W 1025,9 10
19.10.2018 21:00:00 12,5 8,1 24 13 32 18 W 1025,7 10
19.10.2018 20:00:00 12,4 7,8 28 15 32 18 W 1026,0 10
19.10.2018 19:00:00 12,3 8,1 22 12 25 14 WZW 1025,1 10
19.10.2018 18:00:00 12,4 8,7 24 13 25 14 W 1024,7 10
19.10.2018 17:00:00 12,7 9,4 22 12 25 14 W 1024,7 10
19.10.2018 16:00:00 12,7 9,9 21 11 25 14 W 1024,8 10
19.10.2018 15:00:00 13,2 9,9 34 18 36 19 ZZW 1024,7 10
19.10.2018 14:00:00 14,0 8,7 28 15 32 18 ZZW 1025,2 10
19.10.2018 13:00:00 13,6 7,2 22 12 22 12 ZZO 1025,8 10
19.10.2018 12:00:00 13,6 5,9 22 12 29 16 ZZO 1026,0 10
19.10.2018 11:00:00 13,1 6,1 22 12 25 14 ZZO 1026,1 10
19.10.2018 10:00:00 13,2 5,8 21 11 22 12 ZZO 1025,8 9
19.10.2018 09:00:00 12,8 5,0 13 7 18 10 ZO 1025,8 5
19.10.2018 08:00:00 12,7 5,1 8 4 14 8 Z 1025,8 10
19.10.2018 07:00:00 12,5 3,9 5 3 18 10 ZW 1026,3 10
19.10.2018 06:00:00 12,5 4,7 5 3 11 6 ZZW 1026,5 10
19.10.2018 05:00:00 12,2 5,8 9 5 14 8 ZO 1026,9 6
19.10.2018 04:00:00 12,2 5,8 11 6 18 10 ZO 1027,2 5
19.10.2018 03:00:00 11,9 5,7 15 8 18 10 OZO 1027,4 10
19.10.2018 02:00:00 11,9 5,7 15 8 18 10 O 1027,5 10
19.10.2018 01:00:00 11,9 6,0 9 5 14 8 O 1028,0 10
19.10.2018 00:00:00 11,9 6,3 13 7 14 8 O 1028,1 10
18.10.2018 23:00:00 11,9 6,8 13 7 14 8 O 1028,1 10
18.10.2018 22:00:00 11,9 6,7 11 6 14 8 O 1028,2 10
18.10.2018 21:00:00 12,0 6,7 13 7 14 8 ONO 1028,2 10
18.10.2018 20:00:00 12,2 6,2 13 7 18 10 ONO 1028,1 10
18.10.2018 19:00:00 12,2 6,2 16 9 22 12 - 1027,9 10
18.10.2018 18:00:00 12,3 6,5 16 9 22 12 - 1027,9 10
18.10.2018 17:00:00 12,5 6,5 18 10 22 12 - 1027,9 10
18.10.2018 16:00:00 12,5 7,0 14 8 22 12 NO 1027,9 37
18.10.2018 15:00:00 12,6 6,6 21 11 25 14 ONO 1027,8 10
18.10.2018 14:00:00 12,6 7,8 29 16 32 18 - 1028,0 10
18.10.2018 13:00:00 12,7 8,1 24 13 25 14 - 1027,9 10
18.10.2018 12:00:00 12,8 8,5 22 12 29 16 - 1027,8 10
18.10.2018 11:00:00 12,6 8,5 24 13 25 14 NNO 1027,5 10
18.10.2018 10:00:00 12,5 8,5 22 12 25 14 N 1027,2 10
18.10.2018 09:00:00 12,2 8,4 29 16 32 18 N 1026,5 10
18.10.2018 08:00:00 12,1 7,6 26 14 29 16 N 1025,8 10
18.10.2018 07:00:00 12,3 8,3 28 15 29 16 NNW 1025,3 10
18.10.2018 06:00:00 12,4 8,4 28 15 29 16 NNW 1025,2 10
18.10.2018 05:00:00 12,5 8,1 24 13 29 16 NW 1024,9 10
18.10.2018 04:00:00 12,6 7,9 26 14 29 16 NNW 1024,6 10
18.10.2018 03:00:00 12,6 8,2 31 17 32 18 NNW 1024,7 10
18.10.2018 02:00:00 12,8 8,9 31 17 32 18 NNW 1024,6 10
18.10.2018 01:00:00 12,8 9,2 28 15 29 16 N 1024,1 10
18.10.2018 00:00:00 12,8 9,9 24 13 25 14 N 1023,5 10
17.10.2018 23:00:00 12,9 10,2 24 13 25 14 NW 1023,0 10
17.10.2018 22:00:00 13,2 10,7 22 12 22 12 NNW 1022,5 10
17.10.2018 21:00:00 13,3 10,8 21 11 22 12 NNW 1022,0 10
17.10.2018 20:00:00 13,4 11,0 21 11 22 12 NW 1021,3 10
17.10.2018 19:00:00 13,5 10,7 21 11 18 10 NNW 1020,5 10
17.10.2018 18:00:00 13,7 10,9 15 8 18 10 NNW 1019,9 10
17.10.2018 17:00:00 13,8 11,1 15 8 18 10 NW 1019,5 10
17.10.2018 16:00:00 14,0 11,9 18 10 18 10 NW 1019,1 10
17.10.2018 15:00:00 14,0 12,1 15 8 22 12 WNW 1018,8 10
17.10.2018 14:00:00 14,0 12,2 18 10 18 10 WNW 1018,5 10
17.10.2018 13:00:00 14,0 12,0 18 10 22 12 W 1017,9 10
17.10.2018 12:00:00 13,8 12,4 18 10 25 14 W 1017,6 10
17.10.2018 11:00:00 13,8 12,0 22 12 25 14 WZW 1017,2 10
17.10.2018 10:00:00 13,8 11,8 24 13 25 14 WZW 1016,7 10
17.10.2018 09:00:00 13,8 11,3 26 14 29 16 WZW 1016,2 10
17.10.2018 08:00:00 14,0 11,1 28 15 29 16 WZW 1015,6 10
17.10.2018 07:00:00 14,1 12,8 26 14 29 16 WZW 1015,2 10
17.10.2018 06:00:00 14,5 13,2 26 14 29 16 WZW 1014,9 10
17.10.2018 05:00:00 14,7 13,6 28 15 29 16 ZW 1014,7 6
17.10.2018 04:00:00 14,8 13,5 26 14 29 16 WZW 1014,7 10
17.10.2018 03:00:00 15,1 13,9 28 15 32 18 ZW 1014,9 8
17.10.2018 02:00:00 14,9 14,1 26 14 29 16 ZZW 1014,7 9
17.10.2018 01:00:00 14,8 14,2 24 13 22 12 Z 1014,7 10
17.10.2018 00:00:00 13,9 13,9 22 12 22 12 ZZO 1015,0 0,8
16.10.2018 23:00:00 14,5 14,0 22 12 22 12 Z 1015,3 5
16.10.2018 22:00:00 14,4 13,9 21 11 22 12 Z 1015,4 4,9
16.10.2018 21:00:00 14,2 13,8 18 10 29 16 Z 1015,5 4,3
16.10.2018 20:00:00 14,2 13,6 24 13 29 16 ZW 1015,6 4,6
16.10.2018 19:00:00 14,2 13,1 34 18 32 18 ZW 1015,4 9
16.10.2018 18:00:00 14,1 12,8 26 14 32 18 ZW 1015,0 10
16.10.2018 17:00:00 13,9 12,8 28 15 29 16 WZW 1015,0 10
16.10.2018 16:00:00 14,2 12,8 29 16 29 16 ZW 1015,2 10
16.10.2018 15:00:00 14,2 13,5 28 15 36 19 ZW 1015,3 10
16.10.2018 14:00:00 14,6 13,9 28 15 36 19 Z 1014,9 10
16.10.2018 13:00:00 14,8 13,7 28 15 32 18 Z 1014,8 10
16.10.2018 12:00:00 14,9 13,5 31 17 32 18 Z 1015,5 10
16.10.2018 11:00:00 14,8 14,3 31 17 36 19 ZZO 1015,9 9
16.10.2018 10:00:00 14,3 13,9 31 17 29 16 ZO 1015,8 8
16.10.2018 09:00:00 14,1 13,1 29 16 29 16 OZO 1015,7 10
16.10.2018 08:00:00 13,9 12,5 28 15 29 16 OZO 1015,8 10
16.10.2018 07:00:00 13,7 12,0 29 16 29 16 O 1015,7 10
16.10.2018 06:00:00 13,3 11,5 28 15 29 16 O 1015,5 10
16.10.2018 05:00:00 13,1 11,1 26 14 25 14 O 1015,5 10
16.10.2018 04:00:00 13,0 10,9 28 15 25 14 O 1015,6 10
16.10.2018 03:00:00 12,9 10,6 29 16 29 16 O 1015,4 10
16.10.2018 02:00:00 12,9 11,1 28 15 29 16 ONO 1015,4 10
16.10.2018 01:00:00 12,7 11,3 28 15 29 16 ONO 1015,6 10
16.10.2018 00:00:00 12,4 10,9 31 17 36 19 ONO 1015,5 10
15.10.2018 23:00:00 12,2 10,7 34 18 40 21 - 1015,2 10
15.10.2018 22:00:00 12,1 10,7 35 19 47 25 ONO 1015,0 10
15.10.2018 21:00:00 12,3 9,9 41 22 47 25 - 1014,4 10
15.10.2018 20:00:00 12,0 9,5 48 26 54 29 - 1014,4 10
15.10.2018 19:00:00 12,0 9,8 54 29 58 31 - 1014,7 10
15.10.2018 18:00:00 11,7 10,0 63 34 65 35 - 1013,5 10
15.10.2018 17:00:00 11,9 10,0 57 31 61 33 - 1013,4 10
15.10.2018 16:00:00 12,1 10,4 63 34 61 33 - 1013,1 10
15.10.2018 15:00:00 12,0 10,2 52 28 54 29 - 1013,0 10
15.10.2018 14:00:00 12,0 10,2 54 29 54 29 - 1012,8 10
15.10.2018 13:00:00 11,9 10,6 52 28 58 31 - 1012,7 10
15.10.2018 12:00:00 11,9 10,3 54 29 58 31 - 1012,4 10
15.10.2018 11:00:00 11,9 10,5 55 30 54 29 N 1011,9 4,6
15.10.2018 10:00:00 12,0 10,4 54 29 54 29 - 1011,7 10
15.10.2018 09:00:00 12,2 10,6 52 28 50 27 - 1011,5 10
15.10.2018 08:00:00 11,9 10,3 42 23 50 27 - 1011,3 10
15.10.2018 07:00:00 12,0 10,5 46 25 50 27 - 1010,6 7
15.10.2018 06:00:00 11,9 10,4 46 25 47 25 - 1010,8 10
15.10.2018 05:00:00 12,1 10,1 48 26 50 27 - 1010,7 10
15.10.2018 04:00:00 12,0 10,3 46 25 50 27 - 1010,7 10
15.10.2018 03:00:00 11,9 10,6 44 24 47 25 - 1010,6 10
15.10.2018 02:00:00 12,1 10,3 44 24 47 25 - 1010,6 10
15.10.2018 01:00:00 12,0 10,5 41 22 43 23 NNO 1010,5 10
15.10.2018 00:00:00 11,9 10,3 42 23 50 27 NNO 1010,2 10
14.10.2018 23:00:00 11,7 10,3 52 28 58 31 NNO 1009,9 10
14.10.2018 22:00:00 11,4 10,1 61 33 61 33 N 1009,6 8
14.10.2018 21:00:00 11,4 10,2 61 33 61 33 N 1008,5 8
14.10.2018 20:00:00 11,5 10,6 55 30 58 31 N 1007,7 7
14.10.2018 19:00:00 12,3 10,6 52 28 58 31 N 1006,7 10
14.10.2018 18:00:00 12,5 10,2 57 31 58 31 N 1005,5 10
14.10.2018 17:00:00 12,2 10,3 55 30 54 29 N 1005,3 10
14.10.2018 16:00:00 12,9 11,4 54 29 54 29 NNW 1005,2 10
14.10.2018 15:00:00 14,2 13,0 35 19 36 19 N 1004,2 10
14.10.2018 14:00:00 15,8 13,6 16 9 22 12 NW 1005,0 10
14.10.2018 13:00:00 16,0 14,5 4 2 11 6 WZW 1005,4 10
14.10.2018 12:00:00 16,5 14,5 8 4 11 6 Z 1005,8 10
14.10.2018 11:00:00 16,4 14,7 5 3 29 16 ZZW 1006,3 10
14.10.2018 10:00:00 16,3 15,1 18 10 32 18 ZZW 1006,5 10
14.10.2018 09:00:00 16,6 15,1 37 20 36 19 ZZW 1006,1 10
14.10.2018 08:00:00 16,0 15,0 34 18 36 19 Z 1006,0 10
14.10.2018 07:00:00 16,4 15,1 37 20 36 19 Z 1005,6 10
14.10.2018 06:00:00 16,5 15,0 35 19 36 19 Z 1006,2 10
14.10.2018 05:00:00 16,8 15,1 39 21 40 21 Z 1006,3 10
14.10.2018 04:00:00 17,0 15,0 42 23 47 25 Z 1006,6 10

tt = temperatuur
td = dauwpunt
ff = windsnelheid
fx = windstoten
dd = windrichting
ppp = luchtdruk
vv = zicht

Weerstations in de omgeving